Wind_Speed
9 10 10 10 10 10 9 8 7 7 7 9 9 9 9 9 10 9 8 10 11 9 14 9 11 11 12 8 8 5 3 5 6 16 13 20 16 15 10 13 10 7 24 27 25
9 9 10 11 9 9 8 8 9 8 7 6 8 8 8 9 10 14 12 12 12 11 13 14 14 13 15 11 6 7 3 9 2 9 18 21 17 17 12 12 10 17 27 26 24
9 10 11 12 11 10 9 9 8 7 7 6 6 6 6 5 9 7 16 12 12 14 13 12 10 13 12 10 9 2 2 6 6 11 23 24 16 15 20 11 19 25 31 28 24
10 11 13 12 11 10 9 9 7 7 6 6 5 5 5 5 2 4 8 8 13 15 15 15 13 16 12 12 5 1 6 5 4 14 23 18 19 15 12 14 18 25 30 27 23
10 11 13 13 11 10 10 9 7 6 6 5 6 4 3 7 9 4 7 9 17 19 17 17 16 15 10 10 5 6 2 4 7 22 19 17 13 15 13 11 21 27 27 25 22
9 11 13 12 10 9 8 7 5 5 4 5 6 4 4 15 2 2 4 12 15 18 17 18 13 14 7 13 6 5 7 9 15 16 11 12 17 13 10 16 25 28 26 23 21
9 10 10 11 11 9 7 5 4 4 3 4 3 3 9 6 2 4 9 11 14 17 16 17 14 13 6 3 6 6 4 11 6 17 8 8 13 10 16 22 28 28 24 22 19
10 10 9 10 10 8 7 6 6 6 4 2 1 2 7 4 5 7 11 12 13 14 12 14 12 16 13 8 5 10 14 8 13 18 7 5 12 15 20 25 27 26 23 20 19
11 10 8 8 8 7 6 6 5 3 3 4 4 4 7 3 7 10 12 15 14 12 11 10 14 17 12 11 3 9 6 12 14 16 8 5 13 9 18 23 25 24 23 22 20
11 10 7 6 6 6 7 5 5 2 3 2 5 7 6 7 10 11 11 13 15 13 12 13 11 14 12 14 12 11 3 19 15 11 14 9 2 3 10 7 22 23 23 21 22
12 11 8 4 4 4 7 8 3 3 10 11 0 7 3 5 10 12 11 15 14 14 15 20 14 15 19 20 16 3 3 6 16 14 10 10 7 3 13 9 12 21 22 24 24
12 12 8 3 2 2 4 5 8 8 8 4 5 8 3 7 12 14 15 14 15 15 20 12 17 18 19 14 9 19 18 9 19 23 8 13 5 4 11 14 14 15 26 26 28
12 12 7 2 2 4 5 7 7 9 9 6 3 6 10 10 13 18 18 17 13 17 18 15 15 18 14 10 14 15 11 2 6 13 13 14 5 5 5 18 26 28 24 24 24
12 12 5 1 1 3 4 4 7 8 6 12 9 5 6 10 9 18 18 13 12 15 16 16 16 18 7 14 15 14 18 9 17 18 8 5 5 12 8 7 12 25 25 28 26
11 10 4 6 3 5 4 7 10 4 2 4 7 3 7 15 14 14 19 14 12 13 10 16 17 13 15 17 15 5 16 27 22 12 18 14 6 10 14 5 7 22 17 26 27
11 9 4 4 6 6 8 10 6 8 2 4 4 5 10 12 7 15 19 16 11 14 15 19 10 12 16 15 13 5 10 8 12 10 2 14 12 12 12 10 5 21 23 27 32
10 7 6 6 1 6 8 9 8 2 2 3 1 4 10 8 10 11 17 16 11 11 14 16 9 13 16 17 8 13 15 6 7 2 5 14 9 7 19 20 18 24 34 28 29
9 5 7 7 6 8 8 12 7 4 3 2 3 4 10 6 9 15 15 15 18 16 11 14 13 18 10 18 12 16 18 7 7 6 7 16 5 13 23 31 31 32 31 32 33
6 4 7 5 6 8 12 12 6 3 4 8 7 11 11 3 5 11 14 15 17 10 17 15 17 18 14 13 16 15 17 15 7 5 6 7 9 5 16 18 17 19 31 28 27
4 10 8 6 7 8 13 5 2 5 8 8 12 14 9 9 8 8 14 14 13 13 20 11 12 17 15 13 18 16 15 16 11 14 8 6 5 7 17 17 16 17 20 30 31
7 12 8 5 5 14 10 8 1 5 9 7 11 6 15 7 7 6 5 5 6 14 6 9 10 14 13 15 18 14 12 14 17 14 12 6 4 4 13 18 13 11 17 23 28
12 7 9 7 13 7 2 2 2 4 1 7 6 11 2 14 6 4 4 6 16 7 14 16 9 13 18 15 18 17 17 16 12 18 14 9 2 12 11 13 18 12 8 7 11
15 6 8 9 9 8 9 5 4 6 6 6 7 4 4 9 2 5 3 4 4 7 9 7 12 13 10 16 13 13 15 20 16 15 17 14 7 12 10 11 15 16 11 9 9
8 6 9 12 15 10 4 4 3 5 6 6 9 4 9 8 7 7 7 6 2 10 17 10 14 16 9 5 17 19 20 21 19 14 16 13 20 16 15 13 15 16 14 11 9
11 6 3 9 9 3 2 4 3 2 3 4 5 9 8 1 9 7 5 4 6 3 9 7 15 17 6 15 22 19 21 10 15 16 12 3 6 16 15 14 15 16 13 13 12
7 8 9 1 1 5 8 4 4 2 2 1 8 2 6 5 5 10 2 6 2 9 7 10 7 13 12 9 10 13 16 21 18 17 18 2 9 4 18 18 15 15 14 13 12
4 7 8 11 7 9 3 4 3 1 2 5 4 8 3 10 9 7 6 2 3 6 12 10 6 7 15 9 10 9 10 10 11 8 7 7 15 10 11 13 14 12 10 11 10
Wind_Direction
7 358 349 339 328 319 308 296 289 286 282 278 275 276 281 280 278 272 254 241 224 217 179 185 192 201 199 229 223 247 227 146 209 203 142 158 160 154 97 135 157 147 142 146 147
3 356 347 337 327 315 306 301 297 290 286 274 272 273 277 285 283 266 244 233 226 203 181 188 194 191 203 218 225 209 264 182 323 182 148 168 158 153 154 154 136 129 137 144 148
347 347 345 338 329 321 314 304 294 286 286 286 280 277 274 286 291 216 218 223 214 194 182 192 200 195 229 233 219 265 279 344 196 164 146 174 145 162 144 173 146 141 150 149 152
339 343 343 339 332 325 322 313 297 289 280 277 277 280 268 231 266 199 211 218 194 183 190 202 209 210 222 238 241 275 320 203 208 163 151 156 153 173 154 164 148 154 153 152 157
343 342 343 343 340 335 330 324 314 302 290 280 285 275 230 238 253 290 243 211 180 179 199 203 212 216 230 269 280 248 305 193 151 159 143 137 165 147 120 128 142 153 156 157 159
349 350 352 355 349 344 342 343 338 324 305 288 292 273 236 250 245 259 223 179 180 183 199 204 211 224 307 246 255 346 267 151 147 131 116 170 136 155 145 160 146 157 160 162 162
356 356 357 360 357 358 1 9 5 346 320 293 278 258 265 241 276 215 181 177 186 189 198 209 217 214 230 200 238 244 185 130 156 137 144 146 153 135 140 150 154 162 165 164 165
357 355 354 357 0 10 21 21 31 31 38 18 237 213 267 221 228 183 175 179 187 194 203 204 217 237 244 100 202 213 152 149 207 143 103 224 149 130 148 152 159 164 163 163 166
360 356 350 356 358 1 3 11 348 352 4 5 40 209 243 293 193 191 186 179 181 187 195 204 230 223 209 199 285 195 177 174 155 157 125 39 135 166 156 166 167 165 163 168 166
1 356 348 352 354 4 359 327 341 271 286 304 265 241 231 209 167 172 175 180 179 185 189 203 216 226 229 213 216 191 154 190 164 160 124 99 101 206 209 228 173 170 167 169 163
358 353 342 336 343 357 355 339 312 212 229 282 110 284 182 164 176 182 178 175 184 198 205 201 207 217 209 220 128 300 95 313 164 142 108 113 141 192 220 244 259 177 176 171 171
353 348 335 312 299 318 352 306 15 333 302 207 256 243 218 173 178 182 176 188 201 203 222 186 219 228 244 230 222 175 152 223 215 154 121 152 142 178 181 228 247 240 192 175 173
343 342 333 296 249 283 273 302 316 324 256 110 191 209 197 205 202 181 194 216 205 213 212 213 214 231 218 237 245 231 192 162 279 129 117 135 136 180 120 201 252 255 230 173 179
333 336 327 219 225 292 283 288 316 309 262 135 166 130 178 213 223 186 201 207 213 219 214 235 239 203 196 241 238 259 150 139 239 147 140 200 164 196 164 160 274 230 232 174 183
324 330 292 210 243 267 291 315 309 270 247 48 90 121 165 223 116 182 196 215 234 222 212 217 239 214 209 226 232 68 279 150 199 131 124 192 209 144 160 169 247 240 203 202 191
317 321 255 232 263 263 299 304 306 238 84 125 162 202 184 224 185 151 195 221 253 230 217 248 226 208 228 222 226 226 254 252 129 130 172 185 220 163 170 166 213 254 227 222 185
311 298 219 204 144 288 294 294 246 23 199 114 76 226 243 183 155 176 196 205 212 209 207 233 211 221 240 213 183 225 233 218 222 92 307 138 226 139 142 153 192 221 236 217 198
309 249 209 228 256 287 286 250 277 356 36 87 257 206 257 170 206 177 195 212 225 221 209 207 199 219 207 231 190 215 238 207 222 230 143 160 208 147 159 172 175 194 214 204 190
306 199 218 258 279 267 264 256 35 5 359 336 241 255 180 219 260 208 208 215 208 227 255 196 241 171 195 230 233 200 237 238 261 275 157 281 94 103 169 179 193 208 194 204 215
256 213 191 234 247 260 260 343 35 332 326 295 295 240 289 184 198 218 198 202 202 199 255 309 216 171 196 218 241 261 200 238 238 234 277 149 172 145 176 184 195 191 203 192 201
205 215 169 217 235 250 257 69 333 114 331 326 334 334 310 228 213 237 174 34 99 312 252 277 265 169 198 204 213 212 243 222 245 237 243 183 182 157 176 158 175 172 185 188 195
243 226 168 191 234 257 91 29 1 348 190 279 261 289 353 307 285 211 293 114 325 204 235 239 280 247 190 220 230 222 216 220 235 233 252 239 156 319 122 145 148 147 126 109 126
237 188 179 214 259 208 91 170 302 340 10 308 296 265 318 312 292 255 53 175 15 277 12 281 234 246 232 182 204 239 233 226 235 253 246 255 127 134 132 139 139 142 152 151 131
268 197 165 219 271 311 133 193 200 137 292 296 292 263 264 247 222 333 270 101 175 347 339 299 255 245 205 255 201 210 238 216 231 218 240 225 135 157 164 146 141 135 143 142 153
232 258 115 197 198 251 305 34 270 291 168 232 213 277 302 308 268 237 152 151 179 111 296 251 256 270 204 256 259 185 217 231 238 258 249 309 151 148 149 144 148 150 157 159 158
286 264 194 54 49 239 142 150 300 43 299 203 271 261 270 346 20 300 198 247 173 227 304 312 302 278 180 238 279 177 196 207 218 235 247 19 146 100 110 122 138 147 161 168 162
286 270 268 138 219 233 100 55 5 279 123 321 339 287 241 46 333 24 281 335 134 160 266 286 322 234 220 189 200 211 207 220 228 218 265 292 86 127 126 131 135 142 158 154 157
Height
1525 1523 1521 1520 1518 1518 1516 1514 1513 1512 1512 1512 1511 1511 1511 1510 1510 1509 1510 1511 1510 1510 1512 1516 1517 1517 1517 1516 1515 1515 1513 1521 1518 1502 1507 1514 1514 1520 1524 1527 1530 1532 1538 1545 1552
1525 1522 1520 1518 1516 1515 1514 1513 1512 1512 1511 1510 1509 1509 1509 1509 1508 1507 1508 1506 1507 1509 1512 1515 1515 1515 1514 1513 1512 1511 1511 1513 1503 1494 1503 1513 1514 1522 1525 1528 1531 1533 1542 1548 1554
1524 1522 1520 1518 1516 1514 1513 1512 1511 1510 1510 1509 1509 1508 1508 1508 1507 1503 1502 1503 1505 1507 1513 1515 1514 1514 1513 1509 1508 1508 1509 1503 1497 1498 1505 1511 1517 1520 1527 1528 1530 1538 1544 1550 1554
1524 1522 1520 1517 1515 1513 1512 1510 1509 1509 1509 1508 1507 1507 1507 1507 1500 1500 1500 1501 1503 1507 1512 1514 1513 1512 1512 1507 1504 1505 1505 1505 1498 1503 1506 1509 1515 1519 1520 1523 1531 1541 1545 1550 1554
1524 1521 1519 1517 1515 1513 1511 1510 1509 1508 1508 1508 1508 1507 1507 1508 1503 1499 1499 1499 1502 1506 1511 1512 1511 1509 1505 1504 1504 1503 1507 1504 1503 1503 1506 1512 1516 1517 1523 1528 1534 1542 1548 1551 1554
1524 1522 1519 1516 1514 1512 1511 1509 1508 1508 1508 1507 1507 1507 1507 1506 1501 1501 1499 1499 1504 1507 1510 1511 1510 1509 1507 1505 1504 1508 1506 1506 1509 1507 1513 1513 1516 1521 1529 1530 1537 1544 1548 1552 1555
1524 1522 1520 1517 1514 1512 1511 1509 1508 1507 1506 1506 1506 1506 1508 1502 1500 1501 1501 1502 1505 1507 1508 1510 1509 1508 1503 1504 1507 1508 1509 1510 1511 1513 1519 1518 1522 1524 1530 1532 1539 1544 1547 1551 1555
1524 1522 1519 1517 1515 1513 1512 1510 1509 1508 1507 1506 1505 1506 1503 1500 1501 1501 1502 1503 1505 1506 1507 1508 1510 1506 1502 1506 1508 1505 1511 1524 1517 1511 1521 1520 1537 1527 1532 1535 1539 1542 1546 1551 1556
1524 1522 1520 1518 1516 1514 1512 1511 1509 1508 1507 1506 1506 1506 1498 1498 1500 1501 1502 1503 1505 1506 1507 1508 1508 1504 1501 1501 1516 1503 1522 1517 1518 1515 1524 1526 1535 1535 1534 1536 1537 1541 1546 1550 1555
1523 1522 1520 1518 1516 1514 1513 1510 1509 1508 1506 1505 1506 1509 1499 1496 1498 1501 1502 1503 1504 1506 1508 1508 1505 1498 1492 1490 1511 1504 1523 1505 1513 1519 1522 1537 1543 1541 1541 1540 1537 1541 1545 1549 1555
1523 1521 1519 1518 1516 1515 1513 1510 1511 1511 1507 1501 1498 1497 1497 1498 1500 1501 1502 1504 1504 1504 1499 1500 1499 1493 1482 1478 1494 1509 1516 1517 1504 1518 1525 1535 1541 1542 1543 1541 1541 1542 1545 1548 1554
1523 1521 1519 1517 1516 1515 1513 1512 1510 1511 1501 1498 1498 1498 1498 1497 1497 1499 1502 1502 1502 1498 1494 1495 1492 1481 1476 1472 1476 1488 1511 1527 1504 1512 1515 1532 1540 1543 1537 1544 1545 1543 1543 1545 1551
1522 1520 1518 1516 1516 1515 1513 1513 1511 1509 1500 1495 1495 1494 1496 1498 1493 1496 1500 1497 1496 1493 1488 1486 1478 1480 1476 1478 1482 1475 1496 1507 1518 1516 1523 1534 1544 1546 1546 1549 1549 1546 1540 1544 1548
1521 1519 1517 1516 1517 1515 1513 1511 1510 1509 1492 1489 1489 1493 1495 1494 1490 1492 1497 1496 1492 1489 1484 1483 1474 1478 1480 1482 1478 1477 1481 1501 1489 1497 1526 1528 1550 1541 1547 1550 1549 1542 1539 1541 1548
1520 1518 1517 1515 1514 1514 1513 1510 1508 1508 1498 1488 1487 1494 1492 1490 1485 1491 1495 1494 1488 1487 1486 1484 1476 1479 1484 1483 1476 1485 1483 1497 1501 1491 1504 1525 1526 1530 1537 1544 1543 1537 1538 1543 1544
1518 1517 1516 1515 1514 1513 1511 1510 1508 1502 1503 1484 1486 1485 1488 1486 1483 1488 1493 1493 1488 1484 1483 1474 1476 1478 1479 1477 1476 1480 1482 1476 1479 1486 1526 1500 1501 1519 1524 1533 1541 1538 1539 1539 1541
1516 1515 1514 1514 1513 1513 1511 1509 1499 1489 1486 1485 1481 1481 1478 1476 1480 1486 1489 1491 1488 1494 1490 1482 1482 1476 1478 1477 1477 1482 1485 1500 1503 1537 1495 1486 1496 1499 1504 1526 1533 1533 1531 1534 1539
1514 1513 1513 1513 1513 1511 1510 1502 1495 1490 1482 1484 1482 1481 1482 1475 1474 1480 1485 1486 1483 1478 1472 1487 1492 1476 1476 1472 1479 1484 1476 1490 1511 1504 1494 1491 1499 1500 1497 1506 1515 1523 1526 1528 1532
1512 1512 1512 1512 1510 1509 1509 1492 1485 1487 1487 1484 1477 1478 1476 1477 1482 1474 1476 1478 1474 1477 1479 1476 1480 1469 1475 1475 1473 1480 1486 1469 1490 1479 1517 1498 1495 1495 1491 1502 1509 1515 1517 1524 1526
1511 1512 1510 1510 1509 1509 1501 1497 1487 1492 1491 1485 1482 1484 1477 1473 1481 1474 1471 1468 1470 1474 1472 1468 1478 1465 1474 1478 1474 1472 1471 1486 1477 1509 1521 1499 1492 1491 1501 1500 1503 1507 1510 1519 1526
1510 1506 1507 1509 1509 1504 1488 1486 1492 1494 1495 1490 1484 1480 1478 1488 1470 1475 1483 1472 1479 1480 1477 1475 1472 1470 1474 1479 1477 1480 1479 1475 1470 1472 1490 1503 1495 1479 1488 1491 1501 1503 1506 1513 1521
1508 1500 1505 1507 1505 1490 1482 1491 1499 1492 1494 1491 1491 1485 1485 1495 1476 1474 1489 1490 1487 1486 1487 1480 1474 1479 1471 1467 1471 1468 1474 1474 1486 1490 1471 1475 1515 1486 1488 1495 1498 1509 1514 1517 1519
1504 1496 1504 1504 1493 1483 1489 1492 1496 1493 1492 1494 1488 1489 1488 1484 1490 1483 1497 1501 1494 1488 1488 1481 1480 1481 1479 1468 1469 1471 1469 1470 1465 1467 1476 1480 1493 1485 1495 1503 1505 1509 1517 1521 1525
1503 1493 1499 1500 1493 1487 1488 1489 1491 1497 1497 1498 1494 1492 1488 1489 1486 1493 1485 1490 1494 1495 1496 1494 1476 1473 1482 1474 1465 1479 1471 1465 1466 1477 1476 1479 1489 1486 1492 1500 1508 1511 1519 1523 1526
1502 1487 1487 1489 1488 1489 1492 1492 1494 1492 1495 1497 1494 1492 1487 1489 1486 1487 1487 1490 1497 1498 1495 1490 1486 1473 1462 1472 1460 1462 1469 1468 1473 1465 1471 1465 1466 1478 1484 1493 1504 1513 1520 1525 1528
1498 1494 1493 1489 1493 1492 1494 1492 1493 1492 1498 1492 1496 1493 1492 1492 1493 1511 1490 1500 1496 1500 1498 1491 1492 1482 1469 1476 1459 1462 1463 1469 1471 1469 1466 1471 1479 1463 1479 1492 1504 1512 1519 1523 1527
1503 1500 1497 1490 1490 1488 1484 1492 1495 1499 1501 1499 1498 1495 1492 1496 1498 1494 1496 1495 1495 1505 1504 1502 1507 1490 1498 1468 1475 1480 1470 1468 1467 1465 1468 1479 1482 1480 1490 1499 1504 1512 1519 1524 1527